Regional Weather Roundup
Issued by NWS

Home | Current Version | Previous Version | Text Only | Print | Product List | Glossary Off
Versions: 1 2 3 4 5 6 7 8 9 10 11 12 13 14 15 16 17 18 19 20 21 22 23 24 25 26 27 28 29 30 31 32 33 34 35 36 37 38 39 40 41 42 43 44 45 46 47 48 49

000
ASUS45 KSLC 250710
RWRUT

UTAH REGIONAL WEATHER ROUNDUP
NATIONAL WEATHER SERVICE SALT LAKE CITY UT
100 AM MDT FRI JUL 25 2014

UTZ001>011-023>025-250800-

NORTHERN UTAH

CITY           SKY/WX    TMP DP  RH WIND       PRES   REMARKS
HILL AFB       CLEAR     72  42  34 VRB3      30.03R
LOGAN          CLEAR     63  41  44 E3        30.07R
OGDEN          CLEAR     68  42  38 NW9       30.00R
PROVO AIRPORT  CLEAR     72  50  46 SW7       30.02R
SALT LAKE CITY PTCLDY    71  45  39 NW8       29.99R
VERNAL         PTCLDY    68  56  65 MISG      30.09S
WENDOVER       CLEAR     73  37  27 NW14      30.03R
HEBER CITY     CLEAR     61  45  55 CALM      30.10R
WEST JORDAN    CLEAR     72  46  40 NW7       30.02R

$$

UTZ012>022-026-027-250800-

SOUTHERN UTAH

CITY           SKY/WX    TMP DP  RH WIND       PRES   REMARKS
BRYCE CANYON   MOCLDY    65  47  52 SE6       30.34R
CEDAR CITY     MOCLDY    79  45  29 SW12      30.12S
MILFORD        CLEAR     79  47  32 S14       30.05R
MOAB/CYNLANDS  CLEAR     82  50  32 SE12      30.03R
PRICE          CLEAR     73  45  36 NE8       30.12S
ST GEORGE      SUNNY     91  50  24 SE12      29.93R

$$

REGIONAL REPORTS     COLORADO/ARIZONA

CITY           SKY/WX    TMP DP  RH WIND       PRES   REMARKS
CRAIG, CO      PTCLDY    57  51  80 CALM      30.21R
GRAND JUNCTION MOCLDY    76  51  41 SE16      30.09F
RIFLE          MOCLDY    71  50  47 NE5       30.18S
MONTROSE       CLOUDY    70  53  54 E7        30.23F
CORTEZ         LGT RAIN  70  52  52 NE10      30.22F
PAGE, AZ       PTCLDY    85  49  28 SW5       30.05S
GRAND CANYON   MOCLDY    61  56  83 CALM      30.29S
KINGMAN        MOCLDY    82  50  32 SE6       29.99S
FLAGSTAFF      PTCLDY    55  50  83 CALM      30.34R

$$

REGIONAL REPORTS    NEVADA/IDAHO/WYOMING

CITY           SKY/WX    TMP DP  RH WIND       PRES   REMARKS
LAS VEGAS, NV  MOCLDY    96  51  21 S14       29.79R HX  93
ELY            CLEAR     63  22  20 SE3       30.14R
ELKO           CLEAR     66  31  27 NE3       30.09R
POCATELLO, ID  CLEAR     51  32  48 S7        30.11R
BURLEY         CLEAR     52  33  48 SW8       30.09S
EVANSTON, WY   PTCLDY    62  35  36 N6        30.23R
ROCK SPRINGS   CLEAR     69  28  21 CALM      30.20R

$$



USA.gov is the U.S. government's official web portal to all federal, state and local government web resources and services.